TimeEST,TemperatureF,Dew PointF,Humidity,Sea Level PressureIn,VisibilityMPH,Wind Direction,Wind SpeedMPH,Gust SpeedMPH,PrecipitationIn,Events,Conditions,WindDirDegrees,DateUTC
12:56 AM,57.9,55.0,90,30.30,10.0,SW,5.8,-,N/A,,Clear,220,2012-12-04 05:56:00
1:56 AM,55.9,54.0,93,30.31,10.0,SSW,6.9,-,N/A,,Clear,210,2012-12-04 06:56:00
2:56 AM,57.0,55.0,93,30.30,10.0,SW,4.6,-,N/A,,Clear,220,2012-12-04 07:56:00
3:56 AM,57.0,55.9,96,30.30,10.0,WSW,4.6,-,N/A,,Clear,240,2012-12-04 08:56:00
4:56 AM,55.9,55.0,97,30.30,10.0,SW,4.6,-,0.01,,Clear,220,2012-12-04 09:56:00
5:56 AM,57.0,55.0,93,30.31,10.0,WSW,5.8,-,N/A,,Clear,240,2012-12-04 10:56:00
6:56 AM,55.0,54.0,96,30.33,8.0,SW,4.6,-,N/A,,Clear,220,2012-12-04 11:56:00
7:56 AM,55.9,55.0,97,30.34,6.0,Calm,Calm,-,N/A,,Clear,0,2012-12-04 12:56:00
8:56 AM,63.0,57.9,84,30.35,10.0,West,6.9,-,N/A,,Clear,260,2012-12-04 13:56:00
9:56 AM,64.9,59.0,81,30.36,10.0,West,6.9,-,N/A,,Clear,280,2012-12-04 14:56:00
10:56 AM,69.1,59.0,70,30.35,10.0,West,6.9,-,N/A,,Clear,280,2012-12-04 15:56:00
11:56 AM,73.0,57.9,59,30.32,10.0,West,8.1,-,N/A,,Partly Cloudy,270,2012-12-04 16:56:00
12:56 PM,73.0,57.9,59,30.29,9.0,West,12.7,-,N/A,,Partly Cloudy,270,2012-12-04 17:56:00
1:56 PM,72.0,60.1,66,30.26,10.0,SE,5.8,-,N/A,,Clear,130,2012-12-04 18:56:00
2:56 PM,73.9,60.1,62,30.26,10.0,SW,10.4,-,N/A,,Mostly Cloudy,220,2012-12-04 19:56:00
3:56 PM,72.0,59.0,64,30.26,10.0,SSW,9.2,-,N/A,,Clear,210,2012-12-04 20:56:00
4:56 PM,66.9,57.9,73,30.26,10.0,South,5.8,-,N/A,,Clear,190,2012-12-04 21:56:00
5:56 PM,62.1,57.0,84,30.26,10.0,South,6.9,-,N/A,,Clear,180,2012-12-04 22:56:00
6:56 PM,60.1,55.9,86,30.26,10.0,South,5.8,-,N/A,,Clear,190,2012-12-04 23:56:00
7:56 PM,60.1,55.9,86,30.27,10.0,SW,5.8,-,N/A,,Clear,220,2012-12-05 00:56:00
8:56 PM,60.1,57.0,90,30.26,10.0,South,6.9,-,N/A,,Scattered Clouds,190,2012-12-05 01:56:00
9:56 PM,59.0,57.0,93,30.25,10.0,South,5.8,-,N/A,,Mostly Cloudy,190,2012-12-05 02:56:00
10:56 PM,60.1,57.9,93,30.24,10.0,SSW,4.6,-,N/A,,Mostly Cloudy,210,2012-12-05 03:56:00
11:56 PM,60.1,57.9,93,30.23,10.0,SSW,4.6,-,N/A,,Clear,210,2012-12-05 04:56:00